Regional Weather Roundup
Issued by NWS

Home | Current Version | Previous Version | Graphics & Text | Print | Product List | Glossary On
Versions: 1 2 3 4 5 6 7 8 9 10 11 12 13 14 15 16 17 18 19 20 21 22 23 24 25 26 27 28 29 30 31 32 33 34 35 36 37 38 39 40 41 42 43 44 45 46 47 48 49 50
000
ASUS43 KLSX 300907
RWRMO

WEATHER SUMMARY FOR MISSOURI
NATIONAL WEATHER SERVICE SPRINGFIELD MO
300 AM CST FRI JAN 30 2015

NOTE: "FAIR" INDICATES FEW OR NO CLOUDS BELOW 12,000 FEET WITH NO
       SIGNIFICANT WEATHER AND/OR OBSTRUCTIONS TO VISIBILITY.
       CURRENT SKY AND/OR WEATHER CONDITIONS ARE NOT AVAILABLE FOR
       CHILLICOTHE AND FARMINGTON.

MOZ001>031-035>038-043-044-053-054-301000-
...NORTHERN AND WESTERN MISSOURI...

CITY           SKY/WX    TMP DP  RH WIND       PRES   REMARKS
KANSAS CTY INT CLEAR     24  20  84 NW7       30.53R WCI  16
KANSAS C DTWN  CLEAR     27  22  81 N5        30.54S WCI  22
LEE`S SUMMIT   CLEAR     27  22  81 NW3       30.53S
ST JOSEPH      CLEAR     19  16  88 N3        30.56R
CHILLICOTHE      N/A     27  20  75 N3        30.54R
KIRKSVILLE     CLEAR     23  20  88 N7        30.51R WCI  15

$$
MOZ066>068-077>081-088>096-101>105-301000-
...SOUTHWEST MISSOURI...

CITY           SKY/WX    TMP DP  RH WIND       PRES   REMARKS
SPRINGFIELD    CLEAR     26  22  84 NW7       30.49R WCI  18
JOPLIN         CLEAR     25  23  92 N5        30.53S WCI  19

$$
MOZ032>034-039>042-045>050-055>058-069>072-301000-
...CENTRAL MISSOURI...

CITY           SKY/WX    TMP DP  RH WIND       PRES   REMARKS
COLUMBIA       CLEAR     25  20  81 NW7       30.49S WCI  17
JEFFERSON CITY CLEAR     29  21  72 NW3       30.52R
ROLLA          CLEAR     27  21  78 NW8       30.45S WCI  19
SEDALIA        CLEAR     27  22  81 NW7       30.52S WCI  19
WHITEMAN AFB   CLEAR     25  21  84 NW6       30.52R WCI  18
WARRENSBURG    CLEAR     27  23  86 NW3       30.54S
OSAGE BEACH    CLEAR     28  19  69 CALM      30.50S

$$
MOZ051-052-059>065-301000-
...EAST CENTRAL MISSOURI...

CITY           SKY/WX    TMP DP  RH WIND       PRES   REMARKS
ST LOUIS INTL  MOCLDY    31  20  63 NW16      30.48R WCI  20
SPIRIT OF STL  CLEAR     29  21  72 NW9       30.48S WCI  20
ST CHARLES     MOCLDY    30  21  69 NW12      30.48S WCI  20

$$
MOZ072>076-082>087-097>100-106>115-301000-
...SOUTH CENTRAL AND SOUTHEAST MISSOURI...

CITY           SKY/WX    TMP DP  RH WIND       PRES   REMARKS
CAPE GIRARDEAU CLOUDY    37  26  64 N14       30.46R WCI  28
FARMINGTON     CLOUDY    32  21  64 N9        30.47S WCI  24
POPLAR BLUFF   CLEAR     33  24  69 N3        30.45S
WEST PLAINS    CLEAR     30  23  75 NW6       30.46R WCI  24

$$



USA.gov is the U.S. government's official web portal to all federal, state and local government web resources and services.